Regional Weather Roundup
Issued by NWS Sioux Falls, SD

Home | Current Version | Previous Version | Text Only | Print | Product List | Glossary On
Versions: 1 2 3 4 5 6 7 8 9 10 11 12 13 14 15 16 17 18 19 20 21 22 23 24 25 26 27 28 29 30 31 32 33 34 35 36 37 38 39 40 41 42 43 44 45 46 47 48 49 50
000
ASUS43 KFSD 221002
RWRFSD

WEATHER ROUNDUP FOR SE SOUTH DAKOTA/SW MINNESOTA/NW IOWA
NATIONAL WEATHER SERVICE SIOUX FALLS SD
500 AM CDT WED OCT 22 2014

NOTE: "FAIR" INDICATES FEW OR NO CLOUDS BELOW 12,000 FEET WITH NO
SIGNIFICANT WEATHER AND OR OBSTRUCTIONS TO VISIBILITY.


SDZ038>040-050-052>070-221100-
SOUTHEAST SOUTH DAKOTA

CITY           SKY/WX    TMP DP  RH WIND       PRES   REMARKS
CHAMBERLAIN    PTCLDY    60  49  68 S14G21    29.82S
HURON          CLEAR     55  40  56 S17G24    29.86F
MADISON        FAIR      54  43  66 S20G30    29.96F
MITCHELL       CLEAR     56  41  57 SE20      29.90S
SIOUX FALLS    CLEAR     53  44  71 SE12      30.00S
WINNER         FAIR      64  53  67 S23       29.81S
YANKTON        CLEAR     54  41  62 SE12      29.98S
$$

MNZ071-072-080-081-089-090-097-098-221100-
SOUTHWEST MINNESOTA

CITY           SKY/WX    TMP DP  RH WIND       PRES   REMARKS
FAIRMONT       CLEAR     43  34  70 SE17      30.14S
JACKSON        PTCLDY    46  37  71 S16       30.12S
LUVERNE        PTCLDY    54  43  66 SE14      30.04S
MARSHALL       CLOUDY    52  39  62 S21G28    30.02S
MONTEVIDEO     CLOUDY    48  41  76 S15       30.04S
PIPESTONE      CLEAR     52  43  71 S15G22    30.01S
REDWOOD FALLS  CLEAR     46  38  73 SE17      30.08F
TRACY          MOCLDY    51  41  70 S20G28    30.04F
WINDOM         MOCLDY    46  39  76 SE14      30.10R
WORTHINGTON    CLOUDY    50  39  66 S16G24    30.08S
$$

IAZ001>003-012>014-020>022-031-032-NEZ013-014-SDZ071-221100-
NORTHWEST IOWA

CITY           SKY/WX    TMP DP  RH WIND       PRES   REMARKS
CHEROKEE       CLOUDY    50  44  78 S12G21    30.10S
DENISON        CLOUDY    52  43  71 SE8       30.10S
ESTHERVILLE    CLEAR     43  38  82 S17       30.13R
LE MARS        CLEAR     54  45  71 SE15G23   30.05S
ORANGE CITY    CLEAR     54  45  71 SE7       30.05F
SHELDON        CLOUDY    52  43  71 SE20      30.06S
SIOUX CITY     CLEAR     54  45  71 SE10      30.06S
SPENCER        MOCLDY    49  40  71 SE15G22   30.11S
STORM LAKE     CLOUDY    46  41  81 SE17      30.12S
$$

ABBREVIATIONS USED IN REMARKS
   TC - TEMPERATURE IN CELSIUS
  WCI - WIND CHILL INDEX
   HX - HEAT INDEX
  VSB - VISIBILITY




USA.gov is the U.S. government's official web portal to all federal, state and local government web resources and services.